HS2GJW-1 Weather Reports


time (UTC)temp
F
wind
direction
speed
knots
gust
knots
rain 1hr
in
rain 24hr
in
rain mn
in
humidity
%
barometer
mb
20260506091821 95 0 0.0 0.0 0.00 0.00 0.00 72 1005.0
20260506090756 96 0 0.0 0.0 0.00 0.00 0.00 71 1005.0
20260506085732 98 0 0.0 0.0 0.00 0.00 0.00 65 1005.0
20260506084707 99 0 0.0 0.0 0.00 0.00 0.00 64 1005.0
20260506083642 99 0 0.0 0.0 0.00 0.00 0.00 66 1005.0
20260506082618 99 0 0.0 0.0 0.00 0.00 0.00 69 1006.0
20260506081553 99 0 0.0 0.0 0.00 0.00 0.00 66 1006.0
20260506080528 98 0 0.0 0.0 0.00 0.00 0.00 65 1006.0
20260506073414 99 0 0.0 0.0 0.00 0.00 0.00 57 1006.0
20260506072351 100 0 0.0 0.0 0.00 0.00 0.00 58 1006.0
20260506071327 99 0 0.0 0.0 0.00 0.00 0.00 60 1006.0
20260506070303 100 0 0.0 0.0 0.00 0.00 0.00 60 1007.0
20260506062127 99 0 0.0 0.0 0.00 0.00 0.00 64 1008.0
20260506061103 98 0 0.0 0.0 0.00 0.00 0.00 67 1008.0
20260506005909 87 0 0.0 0.0 0.00 0.00 0.00 99 1010.0
20260506004844 86 0 0.0 0.0 0.00 0.00 0.00 99 1010.0
20260506003818 86 0 0.0 0.0 0.00 0.00 0.00 99 1010.0
20260506002753 86 0 0.0 0.0 0.00 0.00 0.00 99 1010.0
20260506001728 85 0 0.0 0.0 0.00 0.00 0.00 99 1010.0
20260506000701 85 0 0.0 0.0 0.00 0.00 0.00 99 1010.0
20260505235635 85 0 0.0 0.0 0.00 0.00 0.00 99 1010.0
20260505234608 84 0 0.0 0.0 0.00 0.00 0.00 99 1009.0
20260505233538 83 0 0.0 0.0 0.00 0.00 0.00 99 1009.0
20260505232510 83 0 0.0 0.0 0.00 0.00 0.00 99 1009.0
20260505121421 91 0 0.0 0.0 0.00 0.00 0.00 81 1008.0
20260505120357 91 0 0.0 0.0 0.00 0.00 0.00 81 1008.0
20260505115333 92 0 0.0 0.0 0.00 0.00 0.00 83 1007.0
20260505114307 92 0 0.0 0.0 0.00 0.00 0.00 85 1007.0
20260505113239 91 0 0.0 0.0 0.00 0.00 0.00 87 1007.0